52,2013-07-17 19:27:42,1374089262,55.20787,-10.10259,3,2,2013-07-17 19:26:00,1374089160,16.43,1,15.8,0,4095,55.202,-10.0748,34,48
53,2013-07-17 20:06:09,1374091569,55.15833,-10.09158,5,3,2013-07-17 20:00:00,1374091200,16.53,3,15.8,30,4095,55.202,-10.0748,34,48
54,2013-07-17 21:06:13,1374095173,55.18737,-10.10259,2,2,2013-07-17 21:00:00,1374094800,15.04,8,15.8,30,0,55.187,-10.0776,52,44
55,2013-07-17 22:06:11,1374098771,55.20787,-10.10259,3,2,2013-07-17 22:00:00,1374098400,15.01,8,15.8,30,60,55.187,-10.0776,52,44
56,2013-07-17 23:06:20,1374102380,55.16348,-10.02979,3,1,2013-07-17 23:00:00,1374102000,14.98,12,15.8,30,120,55.187,-10.0776,52,44
57,2013-07-18 00:06:13,1374105973,55.15833,-10.09158,2,6,2013-07-18 00:00:00,1374105600,14.95,9,15.8,30,0,55.2008,-10.054,82,44
58,2013-07-18 01:06:10,1374109570,55.21303,-10.04073,8,2,2013-07-18 01:00:00,1374109200,14.93,11,15.8,30,60,55.2008,-10.054,82,44
59,2013-07-18 02:06:12,1374113172,55.21816,-9.97886,2,1,2013-07-18 02:00:00,1374112800,14.89,10,15.8,30,120,55.2008,-10.054,82,44
60,2013-07-18 03:06:13,1374116773,55.20787,-10.10259,2,4,2013-07-18 03:00:00,1374116400,14.87,7,15.8,30,0,55.2092,-10.0438,34,44
61,2013-07-18 04:06:12,1374120372,55.18737,-10.10259,2,6,2013-07-18 04:00:00,1374120000,14.9,9,15.8,30,60,55.2092,-10.0438,34,44
62,2013-07-18 05:06:23,1374123983,55.21816,-9.97886,3,1,2013-07-18 05:00:00,1374123600,14.95,7,15.8,30,120,55.2092,-10.0438,34,44
63,2013-07-18 06:06:15,1374127575,55.21816,-9.97886,2,1,2013-07-18 06:00:00,1374127200,14.93,9,15.8,30,0,55.22,-10.0428,32,48
64,2013-07-18 07:06:18,1374131178,55.23692,-10.11362,3,0,2013-07-18 07:00:00,1374130800,14.94,8,15.8,30,60,55.22,-10.0428,32,48
65,2013-07-18 08:06:10,1374134770,55.21303,-10.04073,6,1,2013-07-18 08:00:00,1374134400,14.98,7,15.8,30,120,55.22,-10.0428,32,48
66,2013-07-18 09:06:12,1374138372,55.21303,-10.04073,3,1,2013-07-18 09:00:00,1374138000,15.02,8,15.8,30,0,55.2318,-10.0376,62,48
67,2013-07-18 10:06:11,1374141971,55.20159,-12.80148,190,3,2013-07-18 10:00:00,1374141600,15.03,7,15.8,30,60,55.2318,-10.0376,62,48
68,2013-07-18 11:06:12,1374145572,55.21816,-9.97886,2,2,2013-07-18 11:00:00,1374145200,15.04,7,15.8,30,120,55.2318,-10.0376,62,48
69,2013-07-18 12:06:17,1374149177,55.24153,-10.75488,98,3,2013-07-18 12:00:00,1374148800,15.08,8,15.8,30,0,55.2442,-10.013,62,44
70,2013-07-18 13:06:13,1374152773,55.21303,-10.04073,4,2,2013-07-18 13:00:00,1374152400,15.11,9,15.8,30,60,55.2442,-10.013,62,44
71,2013-07-18 14:06:22,1374156382,55.26079,-10.18663,66,2,2013-07-18 14:00:00,1374156000,15.13,9,15.8,30,120,55.2442,-10.013,62,44
72,2013-07-18 15:06:14,1374159974,55.24209,-10.0517,2,6,2013-07-18 15:00:00,1374159600,15.26,9,15.8,30,0,55.2496,-9.99439999999998,50,48
73,2013-07-18 16:06:14,1374163574,55.2677,-9.98976,1476,6,2013-07-18 16:00:00,1374163200,15.27,8,15.8,30,60,55.2496,-9.99439999999998,50,48
74,2013-07-18 17:06:12,1374167172,55.21816,-9.97886,6,2,2013-07-18 17:00:00,1374166800,15.31,11,15.8,30,120,55.2496,-9.99439999999998,50,48
75,2013-07-18 18:06:13,1374170773,55.14656,-6.47882,233,3,2013-07-18 18:00:00,1374170400,15.3,11,15.8,30,0,55.254,-9.99719999999999,32,48
76,2013-07-18 19:06:14,1374174374,55.29679,-10.00068,5,7,2013-07-18 19:00:00,1374174000,15.37,9,15.8,30,60,55.254,-9.99719999999999,32,48
77,2013-07-18 20:06:10,1374177970,55.29679,-10.00068,13,2,2013-07-18 20:00:00,1374177600,15.36,8,15.8,30,120,55.254,-9.99719999999999,32,48
78,2013-07-18 21:06:12,1374181572,55.29679,-10.00068,4,5,2013-07-18 21:00:00,1374181200,15.31,7,15.8,30,0,55.2678,-9.999,34,48
79,2013-07-18 22:06:15,1374185175,55.24723,-9.98976,6,2,2013-07-18 22:00:00,1374184800,15.35,8,15.8,30,60,55.2678,-9.999,34,48
80,2013-07-18 23:06:10,1374188770,55.3019,-9.93865,3,1,2013-07-18 23:00:00,1374188400,15.31,8,15.8,30,120,55.2678,-9.999,34,48
81,2013-07-19 00:06:13,1374192373,55.24723,-9.98976,4,1,2013-07-19 00:00:00,1374192000,15.3,8,15.8,30,0,55.2816,-9.98099999999999,32,48
82,2013-07-19 01:06:10,1374195970,55.51596,-5.90614,266,7,2013-07-19 01:00:00,1374195600,15.32,9,15.8,30,60,55.2816,-9.98099999999999,32,48
83,2013-07-19 02:06:11,1374199571,55.24723,-9.98976,6,2,2013-07-19 02:00:00,1374199200,15.29,7,15.8,30,120,55.2816,-9.98099999999999,32,48
84,2013-07-19 03:06:13,1374203173,55.3019,-9.93865,3,4,2013-07-19 03:00:00,1374202800,15.29,9,15.8,30,0,55.29,-9.96199999999999,32,48
85,2013-07-19 04:06:10,1374206770,55.3019,-9.93865,3,8,2013-07-19 04:00:00,1374206400,15.22,12,15.8,30,60,55.29,-9.96199999999999,32,48
86,2013-07-19 05:06:17,1374210377,55.29679,-10.00068,4,2,2013-07-19 05:00:00,1374210000,15.18,10,15.8,30,120,55.29,-9.96199999999999,32,48
87,2013-07-19 06:06:17,1374213977,55.29679,-10.00068,4,4,2013-07-19 06:00:00,1374213600,15.16,11,15.8,30,0,55.2942,-9.964,82,48
88,2013-07-19 07:06:10,1374217570,55.29679,-10.00068,2,1,2013-07-19 07:00:00,1374217200,15.14,12,15.8,30,60,55.2942,-9.964,82,48
89,2013-07-19 08:06:14,1374221174,55.34632,-10.01163,11,1,2013-07-19 08:00:00,1374220800,15.22,10,15.8,30,120,55.2942,-9.964,82,48
90,2013-07-19 09:06:17,1374224777,55.2677,-9.98976,2,9,2013-07-19 09:00:00,1374224400,15.23,12,15.8,30,0,55.3034,-9.97399999999999,120,40
90,2013-07-19 09:06:39,1374224799,55.3019,-9.93865,2,0,2013-07-19 09:00:00,1374224400,15.23,12,15.8,30,0,55.3034,-9.97399999999999,120,40
91,2013-07-19 10:06:15,1374228375,55.20537,-14.95168,325,0,2013-07-19 10:00:00,1374228000,15.25,10,15.8,38,60,55.3034,-9.97399999999999,120,40
92,2013-07-19 11:06:13,1374231973,55.29679,-10.00068,5,2,2013-07-19 11:00:00,1374231600,15.31,12,15.8,30,120,55.3034,-9.97399999999999,120,40
93,2013-07-19 12:06:14,1374235574,55.46946,-12.76219,190,3,2013-07-19 12:00:00,1374235200,15.37,10,15.8,30,0,55.3186,-9.9708,86,48
94,2013-07-19 13:06:11,1374239171,55.34632,-10.01163,1,5,2013-07-19 13:00:00,1374238800,15.43,10,15.8,30,60,55.3186,-9.9708,86,48
95,2013-07-19 14:06:20,1374242780,55.34632,-10.01163,3,2,2013-07-19 14:00:00,1374242400,15.51,11,15.8,30,120,55.3186,-9.9708,86,48
96,2013-07-19 15:06:11,1374246371,55.3019,-9.93865,2,2,2013-07-19 15:00:00,1374246000,15.57,11,15.8,30,0,55.3324,-9.9538,62,44
97,2013-07-19 16:06:13,1374249973,55.30249,-9.17238,83,2,2013-07-19 16:00:00,1374249600,15.57,10,15.8,30,60,55.3324,-9.9538,62,44
98,2013-07-19 17:06:11,1374253571,55.29679,-10.00068,2,6,2013-07-19 17:00:00,1374253200,15.61,13,15.8,30,120,55.3324,-9.9538,62,44
99,2013-07-19 18:06:12,1374257172,55.34151,-8.92347,97,2,2013-07-19 18:00:00,1374256800,15.63,11,15.8,30,0,55.3424,-9.9502,148,48
100,2013-07-19 19:06:09,1374260769,55.35145,-9.94954,3,1,2013-07-19 19:00:00,1374260400,15.62,11,15.8,30,60,55.3424,-9.9502,148,48
101,2013-07-19 20:06:11,1374264371,55.3019,-9.93865,13,7,2013-07-19 20:00:00,1374264000,15.61,10,15.8,30,120,55.3424,-9.9502,148,48
102,2013-07-19 21:06:15,1374267975,55.35654,-9.88742,2,4,2013-07-19 21:00:00,1374267600,15.58,10,15.8,30,0,55.3482,-9.95679999999999,94,44
103,2013-07-19 22:06:11,1374271571,55.3019,-9.93865,4,5,2013-07-19 22:00:00,1374271200,15.57,13,15.8,30,60,55.3482,-9.95679999999999,94,44
104,2013-07-19 23:06:12,1374275172,55.32589,-10.01163,9,9,2013-07-19 23:00:00,1374274800,15.66,11,15.8,30,120,55.3482,-9.95679999999999,94,44
105,2013-07-20 00:06:10,1374278770,55.35145,-9.94954,2,2,2013-07-20 00:00:00,1374278400,15.64,12,15.8,30,0,55.3646,-9.95699999999999,64,36
106,2013-07-20 01:06:10,1374282370,55.40607,-9.89826,4,6,2013-07-20 01:00:00,1374282000,15.61,11,15.8,30,60,55.3646,-9.95699999999999,64,36
107,2013-07-20 02:06:12,1374285972,55.35145,-9.94954,3,2,2013-07-20 02:00:00,1374285600,15.59,11,15.8,30,120,55.3646,-9.95699999999999,64,36
108,2013-07-20 03:06:09,1374289569,55.40098,-9.96044,7,1,2013-07-20 03:00:00,1374289200,15.54,11,15.8,30,0,55.383,-9.92779999999999,10,44
109,2013-07-20 04:06:24,1374293184,55.35654,-9.88742,2,1,2013-07-20 04:00:00,1374292800,15.5,10,15.8,30,60,55.383,-9.92779999999999,10,44
110,2013-07-20 05:06:26,1374296786,55.72735,-4.46716,354,1,2013-07-20 05:00:00,1374296400,15.5,10,15.8,30,120,55.383,-9.92779999999999,10,44
111,2013-07-20 06:06:09,1374300369,55.38057,-9.96044,2,1,2013-07-20 06:00:00,1374300000,15.51,10,15.8,30,0,55.3894,-9.90519999999998,86,36
112,2013-07-20 07:06:13,1374303973,55.3616,-9.82528,15,1,2013-07-20 07:00:00,1374303600,15.53,9,15.8,30,60,55.3894,-9.90519999999998,86,36
113,2013-07-20 08:06:09,1374307569,55.41114,-9.83605,2,0,2013-07-20 08:00:00,1374307200,15.56,12,15.8,30,120,55.3894,-9.90519999999998,86,36
114,2013-07-20 09:06:13,1374311173,55.40098,-9.96044,2,1,2013-07-20 09:00:00,1374310800,15.65,9,15.8,30,0,55.388,-9.91039999999998,64,48
115,2013-07-20 10:06:15,1374314775,55.35145,-9.94954,7,1,2013-07-20 10:00:00,1374314400,15.76,11,15.8,30,60,55.388,-9.91039999999998,64,48
116,2013-07-20 11:06:13,1374318373,55.40607,-9.89826,3,2,2013-07-20 11:00:00,1374318000,16.06,11,15.8,30,120,55.388,-9.91039999999998,64,48
117,2013-07-20 12:06:12,1374321972,55.66821,-15.33328,352,3,2013-07-20 12:00:00,1374321600,16.35,10,15.8,30,0,55.3978,-9.92419999999998,56,48
118,2013-07-20 13:06:11,1374325571,55.43522,-9.90912,6,3,2013-07-20 13:00:00,1374325200,16.51,12,15.8,30,60,55.3978,-9.92419999999998,56,48
119,2013-07-20 14:06:11,1374329171,55.6015,-14.29787,10,7,2013-07-20 14:00:00,1374328800,16.52,9,15.8,30,120,55.3978,-9.92419999999998,56,48
120,2013-07-20 15:06:21,1374332781,55.40098,-9.96044,3,2,2013-07-20 15:00:00,1374332400,16.61,10,15.8,30,0,55.4182,-9.90819999999999,32,48
121,2013-07-20 16:06:11,1374336371,55.51005,-11.34719,114,5,2013-07-20 16:00:00,1374336000,16.72,10,15.8,30,60,55.4182,-9.90819999999999,32,48
122,2013-07-20 17:06:18,1374339978,55.43522,-9.90912,2,1,2013-07-20 17:00:00,1374339600,16.86,9,15.8,30,120,55.4182,-9.90819999999999,32,48
123,2013-07-20 18:06:11,1374343571,55.3568,-9.12017,161,2,2013-07-20 18:00:00,1374343200,16.92,8,15.8,30,0,55.4286,-9.88479999999998,50,48
124,2013-07-20 19:06:14,1374347174,55.41114,-9.83605,2,3,2013-07-20 19:00:00,1374346800,16.91,8,15.8,30,60,55.4286,-9.88479999999998,50,48
125,2013-07-20 20:06:10,1374350770,55.37718,-8.42466,116,1,2013-07-20 20:00:00,1374350400,16.81,8,15.8,30,120,55.4286,-9.88479999999998,50,48
126,2013-07-20 21:06:15,1374354375,55.43522,-9.90912,2,6,2013-07-20 21:00:00,1374354000,16.81,8,15.8,30,0,55.4304,-9.8852,62,48
127,2013-07-20 22:06:12,1374357972,55.43522,-9.90912,3,9,2013-07-20 22:00:00,1374357600,16.77,10,15.8,30,60,55.4304,-9.8852,62,48
128,2013-07-20 23:06:11,1374361571,55.41114,-9.83605,2,4,2013-07-20 23:00:00,1374361200,16.79,11,15.8,30,120,55.4304,-9.8852,62,48
129,2013-07-21 00:06:12,1374365172,55.40607,-9.89826,2,6,2013-07-21 00:00:00,1374364800,16.78,10,15.8,30,0,55.4332,-9.89339999999999,32,44
130,2013-07-21 01:06:13,1374368773,55.40607,-9.89826,3,1,2013-07-21 01:00:00,1374368400,16.74,9,15.8,30,60,55.4332,-9.89339999999999,32,44
131,2013-07-21 02:06:12,1374372372,55.44029,-9.84685,2,5,2013-07-21 02:00:00,1374372000,16.67,9,15.8,30,120,55.4332,-9.89339999999999,32,44
132,2013-07-21 03:06:12,1374375972,55.56992,-7.31383,175,3,2013-07-21 03:00:00,1374375600,16.63,9,15.8,30,0,55.4462,-9.8818,32,48
133,2013-07-21 04:06:14,1374379574,55.45559,-9.90912,2,4,2013-07-21 04:00:00,1374379200,16.56,8,15.8,30,60,55.4462,-9.8818,32,48
134,2013-07-21 05:06:10,1374383170,55.46067,-9.84685,3,7,2013-07-21 05:00:00,1374382800,16.45,7,15.8,30,120,55.4462,-9.8818,32,48
135,2013-07-21 06:06:16,1374386776,55.46571,-9.78456,2,0,2013-07-21 06:00:00,1374386400,16.47,8,15.8,30,0,55.4514,-9.858,62,36
136,2013-07-21 07:06:10,1374390370,55.45559,-9.90912,3,5,2013-07-21 07:00:00,1374390000,16.33,10,15.8,30,60,55.4514,-9.858,62,36
137,2013-07-21 08:06:10,1374393970,55.41114,-9.83605,4,1,2013-07-21 08:00:00,1374393600,16.23,10,15.8,30,120,55.4514,-9.858,62,36
138,2013-07-21 09:06:13,1374397573,55.43522,-9.90912,4,6,2013-07-21 09:00:00,1374397200,16.36,9,15.8,30,0,55.4516,-9.85559999999998,8,48
139,2013-07-21 10:06:15,1374401175,55.48983,-9.85767,7,2,2013-07-21 10:00:00,1374400800,16.46,10,15.8,30,60,55.4516,-9.85559999999998,8,48
140,2013-07-21 11:06:25,1374404785,55.44029,-9.84685,2,2,2013-07-21 11:00:00,1374404400,16.55,12,15.8,30,120,55.4516,-9.85559999999998,8,48
141,2013-07-21 12:06:12,1374408372,55.48475,-9.92001,4,9,2013-07-21 12:00:00,1374408000,16.63,11,15.8,30,0,55.4554,-9.85979999999998,110,48
142,2013-07-21 13:06:15,1374411975,55.44029,-9.84685,4,3,2013-07-21 13:00:00,1374411600,16.54,13,15.8,30,60,55.4554,-9.85979999999998,110,48
143,2013-07-21 14:06:12,1374415572,55.46571,-9.78456,4,2,2013-07-21 14:00:00,1374415200,16.66,11,15.8,30,120,55.4554,-9.85979999999998,110,48
144,2013-07-21 15:06:11,1374419171,55.44029,-9.84685,4,7,2013-07-21 15:00:00,1374418800,16.64,10,15.8,30,0,55.4654,-9.85139999999998,62,44
145,2013-07-21 16:06:14,1374422774,55.57583,-11.82004,160,6,2013-07-21 16:00:00,1374422400,16.69,11,15.8,30,60,55.4654,-9.85139999999998,62,44
146,2013-07-21 17:08:15,1374426495,55.48983,-9.85767,4,2,2013-07-21 17:00:00,1374426000,16.59,11,15.8,30,120,55.4654,-9.85139999999998,62,44
147,2013-07-21 18:06:11,1374429971,55.51403,-10.63911,85,2,2013-07-21 18:00:00,1374429600,16.81,10,15.8,134,0,55.4796,-9.83499999999998,140,48
148,2013-07-21 19:06:13,1374433573,55.49488,-9.79531,5,3,2013-07-21 19:00:00,1374433200,16.8,9,15.8,30,60,55.4796,-9.83499999999998,140,48
149,2013-07-21 20:06:14,1374437174,55.55247,-10.7754,110,1,2013-07-21 20:00:00,1374436800,16.69,10,15.8,30,120,55.4796,-9.83499999999998,140,48
150,2013-07-21 21:06:12,1374440772,55.48983,-9.85767,4,5,2013-07-21 21:00:00,1374440400,16.67,10,15.8,30,0,55.4856,-9.83239999999998,92,48
151,2013-07-21 22:06:19,1374444379,55.36826,-7.65718,157,3,2013-07-21 22:00:00,1374444000,16.64,11,15.8,30,60,55.4856,-9.83239999999998,92,48
152,2013-07-21 23:06:12,1374447972,55.49488,-9.79531,3,6,2013-07-21 23:00:00,1374447600,16.7,10,15.8,30,120,55.4856,-9.83239999999998,92,48
153,2013-07-22 00:06:09,1374451569,55.44534,-9.78456,3,8,2013-07-22 00:00:00,1374451200,16.7,11,15.8,30,0,55.4892,-9.8314,92,48
154,2013-07-22 01:06:09,1374455169,55.49323,-10.1803,74,1,2013-07-22 01:00:00,1374454800,16.48,10,15.8,30,60,55.4892,-9.8314,92,48
155,2013-07-22 02:06:09,1374458769,55.48983,-9.85767,2,1,2013-07-22 02:00:00,1374458400,16.42,11,15.8,30,120,55.4892,-9.8314,92,48
156,2013-07-22 03:06:13,1374462373,55.49919,-8.96275,135,6,2013-07-22 03:00:00,1374462000,16.33,9,15.8,30,0,55.492,-9.82139999999998,10,44
157,2013-07-22 04:06:11,1374465971,55.49488,-9.79531,3,1,2013-07-22 04:00:00,1374465600,16.28,10,15.8,30,60,55.492,-9.82139999999998,10,44
158,2013-07-22 05:06:10,1374469570,55.48983,-9.85767,7,1,2013-07-22 05:00:00,1374469200,16.19,10,15.8,30,120,55.492,-9.82139999999998,10,44
159,2013-07-22 06:06:12,1374473172,55.48983,-9.85767,4,2,2013-07-22 06:00:00,1374472800,16.38,11,15.8,30,0,55.5,-9.8116,58,48
160,2013-07-22 07:06:13,1374476773,55.48475,-9.92001,5,0,2013-07-22 07:00:00,1374476400,16.41,10,15.8,30,60,55.5,-9.8116,58,48
161,2013-07-22 08:06:11,1374480371,55.54441,-9.80609,7,2,2013-07-22 08:00:00,1374480000,16.37,9,15.8,30,120,55.5,-9.8116,58,48
162,2013-07-22 09:06:21,1374483981,55.49488,-9.79531,3,0,2013-07-22 09:00:00,1374483600,16.35,10,15.8,30,0,55.5084,-9.8092,32,48
163,2013-07-22 10:06:09,1374487569,55.49991,-9.73293,1,1,2013-07-22 10:00:00,1374487200,16.52,10,15.8,30,60,55.5084,-9.8092,32,48
164,2013-07-22 11:06:13,1374491173,55.49488,-9.79531,7,2,2013-07-22 11:00:00,1374490800,16.64,9,15.8,30,120,55.5084,-9.8092,32,48
165,2013-07-22 12:06:14,1374494774,55.49488,-9.79531,2,5,2013-07-22 12:00:00,1374494400,16.72,8,15.8,30,0,55.5086,-9.80699999999999,62,48
166,2013-07-22 13:06:10,1374498370,55.48983,-9.85767,1,2,2013-07-22 13:00:00,1374498000,16.85,9,15.8,30,60,55.5086,-9.80699999999999,62,48
167,2013-07-22 14:06:12,1374501972,55.49991,-9.73293,4,4,2013-07-22 14:00:00,1374501600,16.8,11,15.8,30,120,55.5086,-9.80699999999999,62,48
168,2013-07-22 15:06:09,1374505569,55.49488,-9.79531,2,3,2013-07-22 15:00:00,1374505200,16.87,9,15.8,30,0,55.509,-9.80240000000001,34,48
169,2013-07-22 16:06:09,1374509169,55.49991,-9.73293,4,5,2013-07-22 16:00:00,1374508800,16.93,10,15.8,30,60,55.509,-9.80240000000001,34,48
170,2013-07-22 17:06:14,1374512774,55.48983,-9.85767,2,6,2013-07-22 17:00:00,1374512400,17.08,10,15.8,30,120,55.509,-9.80240000000001,34,48
171,2013-07-22 18:06:11,1374516371,55.69085,-13.15674,222,2,2013-07-22 18:00:00,1374516000,17.07,8,15.8,30,0,55.5204,-9.79519999999999,62,48
172,2013-07-22 19:06:12,1374519972,55.54441,-9.80609,3,5,2013-07-22 19:00:00,1374519600,17.07,8,15.8,30,60,55.5204,-9.79519999999999,62,48
173,2013-07-22 20:06:20,1374523580,55.52686,-10.37848,121,2,2013-07-22 20:00:00,1374523200,16.98,10,15.8,30,120,55.5204,-9.79519999999999,62,48
174,2013-07-22 21:06:09,1374527169,55.54944,-9.74364,2,3,2013-07-22 21:00:00,1374526800,16.89,8,15.8,30,0,55.5258,-9.798,122,48
175,2013-07-22 22:06:14,1374530774,55.49488,-9.79531,7,5,2013-07-22 22:00:00,1374530400,16.87,9,15.8,30,60,55.5258,-9.798,122,48
176,2013-07-22 23:06:12,1374534372,55.49488,-9.79531,4,3,2013-07-22 23:00:00,1374534000,16.83,9,15.8,30,120,55.5258,-9.798,122,48
177,2013-07-23 00:06:10,1374537970,55.49488,-9.79531,4,2,2013-07-23 00:00:00,1374537600,16.84,9,15.8,30,0,55.5276,-9.8058,82,48
178,2013-07-23 01:06:13,1374541573,55.41311,-11.83011,150,1,2013-07-23 01:00:00,1374541200,16.76,8,15.8,30,60,55.5276,-9.8058,82,48
179,2013-07-23 02:06:11,1374545171,55.49488,-9.79531,3,3,2013-07-23 02:00:00,1374544800,16.75,8,15.8,30,120,55.5276,-9.8058,82,48
180,2013-07-23 03:06:12,1374548772,55.58267,-8.91984,101,2,2013-07-23 03:00:00,1374548400,16.82,9,15.8,30,0,55.528,-9.79499999999999,32,48
181,2013-07-23 04:06:12,1374552372,55.54441,-9.80609,5,3,2013-07-23 04:00:00,1374552000,16.81,9,15.8,30,60,55.528,-9.79499999999999,32,48
182,2013-07-23 05:06:20,1374555980,55.5715,-8.65936,98,1,2013-07-23 05:00:00,1374555600,16.81,11,15.8,30,120,55.528,-9.79499999999999,32,48
183,2013-07-23 06:06:21,1374559581,55.51523,-9.79531,2,2,2013-07-23 06:00:00,1374559200,16.76,9,15.8,30,0,55.5292,-9.78299999999999,32,48
184,2013-07-23 07:06:12,1374563172,55.55444,-9.68117,24,1,2013-07-23 07:00:00,1374562800,16.79,7,15.8,30,60,55.5292,-9.78299999999999,32,48
185,2013-07-23 08:06:10,1374566770,55.54944,-9.74364,1,1,2013-07-23 08:00:00,1374566400,16.81,6,15.8,30,120,55.5292,-9.78299999999999,32,48
186,2013-07-23 09:06:14,1374570374,55.75978,-5.62174,273,17,2013-07-23 09:00:00,1374570000,16.92,6,15.8,30,0,55.534,-9.78619999999998,32,48
187,2013-07-23 10:06:14,1374573974,55.49488,-9.79531,5,0,2013-07-23 10:00:00,1374573600,16.92,7,15.8,30,60,55.534,-9.78619999999998,32,48
188,2013-07-23 11:06:41,1374577601,55.53935,-9.86852,2,3,2013-07-23 11:00:00,1374577200,16.96,8,15.8,30,120,55.534,-9.78619999999998,32,48
189,2013-07-23 12:06:13,1374581173,55.53935,-9.86852,2,3,2013-07-23 12:00:00,1374580800,16.99,8,15.8,40,0,55.5354,-9.80199999999999,32,48
190,2013-07-23 13:06:14,1374584774,55.54441,-9.80609,8,2,2013-07-23 13:00:00,1374584400,17.02,8,15.8,30,60,55.5354,-9.80199999999999,32,48
191,2013-07-23 14:06:35,1374588395,55.49488,-9.79531,4,2,2013-07-23 14:00:00,1374588000,17.24,9,15.8,30,120,55.5354,-9.80199999999999,32,48
192,2013-07-23 15:06:30,1374591990,55.54944,-9.74364,3,3,2013-07-23 15:00:00,1374591600,17.11,9,15.8,34,0,55.5368,-9.80339999999998,32,48
193,2013-07-23 16:06:10,1374595570,55.54944,-9.74364,4,5,2013-07-23 16:00:00,1374595200,17.16,8,15.8,30,60,55.5368,-9.80339999999998,32,48
194,2013-07-23 17:06:12,1374599172,55.54441,-9.80609,2,8,2013-07-23 17:00:00,1374598800,17.14,10,15.8,30,120,55.5368,-9.80339999999998,32,48
195,2013-07-23 18:06:13,1374602773,55.73507,-13.30985,237,5,2013-07-23 18:00:00,1374602400,17.18,7,15.8,30,0,55.542,-9.79339999999999,32,48
196,2013-07-23 19:06:12,1374606372,55.54944,-9.74364,2,3,2013-07-23 19:00:00,1374606000,16.96,9,15.8,30,60,55.542,-9.79339999999999,32,48
197,2013-07-23 20:06:11,1374609971,55.69245,-12.57021,189,10,2013-07-23 20:00:00,1374609600,17.15,9,15.8,30,120,55.542,-9.79339999999999,32,48
198,2013-07-23 21:06:14,1374613574,55.54441,-9.80609,1,6,2013-07-23 21:00:00,1374613200,17.07,8,15.8,30,0,55.5444,-9.79079999999999,12,44
199,2013-07-23 22:06:12,1374617172,55.63977,-12.29447,181,5,2013-07-23 22:00:00,1374616800,16.86,11,15.8,30,60,55.5444,-9.79079999999999,12,44
200,2013-07-23 23:06:11,1374620771,55.52025,-9.73293,2,8,2013-07-23 23:00:00,1374620400,16.86,8,15.8,30,120,55.5444,-9.79079999999999,12,44
201,2013-07-24 00:06:12,1374624372,55.51018,-9.85767,2,1,2013-07-24 00:00:00,1374624000,16.68,9,15.8,30,0,55.5472,-9.80719999999999,146,44
202,2013-07-24 01:06:21,1374627981,55.53935,-9.86852,3,1,2013-07-24 01:00:00,1374627600,16.7,9,15.8,30,60,55.5472,-9.80719999999999,146,44
203,2013-07-24 02:06:13,1374631573,55.54944,-9.74364,2,2,2013-07-24 02:00:00,1374631200,16.68,12,15.8,30,120,55.5472,-9.80719999999999,146,44
204,2013-07-24 03:06:21,1374635181,55.49243,-11.53336,128,2,2013-07-24 03:00:00,1374634800,16.69,9,15.8,30,0,55.5472,-9.80279999999999,66,44
205,2013-07-24 04:06:11,1374638771,55.53935,-9.86852,2,5,2013-07-24 04:00:00,1374638400,16.6,12,15.8,30,60,55.5472,-9.80279999999999,66,44
206,2013-07-24 05:06:14,1374642374,55.53935,-9.86852,3,3,2013-07-24 05:00:00,1374642000,16.58,9,15.8,30,120,55.5472,-9.80279999999999,66,44
207,2013-07-24 06:06:11,1374645971,55.54944,-9.74364,2,2,2013-07-24 06:00:00,1374645600,16.64,10,15.8,30,0,55.547,-9.7962,56,48
208,2013-07-24 07:06:17,1374649577,55.61372,-8.34557,114,2,2013-07-24 07:00:00,1374649200,16.68,10,15.8,30,60,55.547,-9.7962,56,48
209,2013-07-24 08:06:10,1374653170,55.54441,-9.80609,3,1,2013-07-24 08:00:00,1374652800,16.6,9,15.8,30,120,55.547,-9.7962,56,48
210,2013-07-24 09:06:14,1374656774,55.53935,-9.86852,12,1,2013-07-24 09:00:00,1374656400,16.59,13,15.8,30,0,55.5506,-9.7902,62,44
211,2013-07-24 10:06:12,1374660372,55.59896,-9.75438,5,1,2013-07-24 10:00:00,1374660000,16.67,13,15.8,30,60,55.5506,-9.7902,62,44
212,2013-07-24 11:06:14,1374663974,55.54441,-9.80609,4,7,2013-07-24 11:00:00,1374663600,16.63,11,15.8,30,120,55.5506,-9.7902,62,44
213,2013-07-24 12:06:23,1374667583,55.57361,-9.8169,4,2,2013-07-24 12:00:00,1374667200,16.58,10,15.8,30,0,55.5532,-9.803,120,44
214,2013-07-24 13:06:23,1374671183,55.54441,-9.80609,6,2,2013-07-24 13:00:00,1374670800,16.58,17,15.8,30,60,55.5532,-9.803,120,44
215,2013-07-24 14:06:14,1374674774,55.54944,-9.74364,2,2,2013-07-24 14:00:00,1374674400,16.58,12,15.8,30,120,55.5532,-9.803,120,44
216,2013-07-24 15:06:12,1374678372,55.53935,-9.86852,2,3,2013-07-24 15:00:00,1374678000,16.63,10,15.8,30,0,55.5522,-9.80619999999999,54,44
217,2013-07-24 16:06:13,1374681973,55.53935,-9.86852,13,4,2013-07-24 16:00:00,1374681600,16.66,12,15.8,30,60,55.5522,-9.80619999999999,54,44
218,2013-07-24 17:06:11,1374685571,55.51523,-9.79531,9,4,2013-07-24 17:00:00,1374685200,16.55,12,15.8,30,120,55.5522,-9.80619999999999,54,44
219,2013-07-24 18:06:11,1374689171,55.54944,-9.74364,3,6,2013-07-24 18:00:00,1374688800,16.63,10,15.8,30,0,55.5568,-9.8014,84,44
220,2013-07-24 19:06:11,1374692771,55.54441,-9.80609,2,7,2013-07-24 19:00:00,1374692400,16.61,10,15.6,30,60,55.5568,-9.8014,84,44
221,2013-07-24 20:06:11,1374696371,55.59392,-9.8169,10,6,2013-07-24 20:00:00,1374696000,16.69,10,15.6,30,120,55.5568,-9.8014,84,44
222,2013-07-24 21:06:12,1374699972,55.59392,-9.8169,5,5,2013-07-24 21:00:00,1374699600,16.67,11,15.6,30,0,55.5636,-9.79059999999998,82,44
223,2013-07-24 22:06:13,1374703573,55.54441,-9.80609,2,4,2013-07-24 22:00:00,1374703200,16.66,11,15.6,30,60,55.5636,-9.79059999999998,82,44
224,2013-07-24 23:06:14,1374707174,55.54441,-9.80609,2,5,2013-07-24 23:00:00,1374706800,16.6,12,15.6,30,120,55.5636,-9.79059999999998,82,44
225,2013-07-25 00:06:12,1374710772,55.54944,-9.74364,2,5,2013-07-25 00:00:00,1374710400,16.56,12,15.6,30,0,55.5652,-9.7902,150,44
226,2013-07-25 01:06:14,1374714374,55.4971,-14.405,298,2,2013-07-25 01:00:00,1374714000,16.51,11,15.6,30,60,55.5652,-9.7902,150,44
227,2013-07-25 02:06:12,1374717972,55.54441,-9.80609,2,4,2013-07-25 02:00:00,1374717600,16.5,9,15.6,30,120,55.5652,-9.7902,150,44